GAOFEN-1 04
Last updated on Mon Jun 22 2026 00:02:52 GMT+0000 (Coordinated Universal Time)
1 43262U 18031D 26172.52195146 .00000393 00000+0 63905-4 0 9992
2 43262 98.0522 235.0866 0002130 73.2596 286.8847 14.76438382443328
Next 0 passes for location: London (51.5072 / 0.1276)
No passes found over London.